Weather History for Ainsworth, NE

Change the Weather History Date:

Friday, January 18, 2013

  Actual Average Record
Temperature  
Mean Temperature 43 °F -  
Max Temperature 55 °F 33 °F 59 °F (2006)
Min Temperature 31 °F 13 °F 3 °F (2002)
Degree Days  
Heating Degree Days 22    
Moisture  
Dew Point 21 °F    
Average Humidity 50    
Maximum Humidity 69    
Minimum Humidity 22    
Precipitation  
Precipitation 0.00 in - - ()
Sea Level Pressure  
Sea Level Pressure 29.94 in    
Wind  
Wind Speed 11 mph (WSW)    
Max Wind Speed 16 mph    
Max Gust Speed 18 mph    
Visibility 10 miles    
Events      
Averages and records for this station are not official NWS values.
T = Trace of Precipitation, MM = Missing Value Source: NWS Daily Summary

Daily Weather History Graph

Daily Weather History Graph

Search for Another Location

Airport:

Trip Planner

Search our weather history database for the weather conditions in past years. The results will help you decide how hot, cold, wet, or windy it might be!

Date:

Astronomy

Jan. 18, 2013 Rise Set
Actual Time 8:05 AM CST 5:36 PM CST
Civil Twilight 7:34 AM CST 6:06 PM CST
Nautical Twilight 6:59 AM CST 6:41 PM CST
Astronomical Twilight 6:26 AM CST 7:15 PM CST
Moon 11:33 AM CST (1/18) 12:38 AM CST (1/18)
Length of Visible Light 10h 32m
Length of Day
9h 30m
Waxing Crescent, 47% of the Moon is Illuminated
Jan 18
Waxing Crescent
Jan 18
First Quarter
Jan 26
Full
Feb 3
Last Quarter
Feb 10
New

Hourly Weather History & Observations

Time (CST) Temp. Windchill Dew Point Humidity Pressure Visibility Wind Dir Wind Speed Gust Speed Precip Events Conditions
12:15 AM 34.3 °F 25.0 °F 24.8 °F 68% 30.10 in 10.0 mi SW 13.8 mph - N/A   Clear
12:35 AM 35.2 °F 26.2 °F 24.6 °F 65% 30.08 in 10.0 mi SW 13.8 mph - N/A   Clear
12:55 AM 35.2 °F 25.8 °F 24.3 °F 64% 30.07 in 10.0 mi SSW 15.0 mph - N/A   Clear
1:15 AM 34.9 °F 24.9 °F 24.3 °F 65% 30.05 in 10.0 mi SW 16.1 mph - N/A   Clear
1:35 AM 34.9 °F 25.3 °F 23.9 °F 64% 30.05 in 10.0 mi SW 15.0 mph - N/A   Clear
1:55 AM 34.7 °F 25.9 °F 23.9 °F 65% 30.04 in 10.0 mi SSW 12.7 mph - N/A   Clear
2:15 AM 35.1 °F 26.9 °F 23.7 °F 63% 30.03 in 10.0 mi SW 11.5 mph - N/A   Clear
2:35 AM 34.9 °F 27.1 °F 23.9 °F 64% 30.02 in 10.0 mi SW 10.4 mph - N/A   Clear
2:55 AM 34.0 °F 26.0 °F 23.9 °F 67% 30.02 in 10.0 mi SW 10.4 mph - N/A   Clear
3:15 AM 32.7 °F 27.3 °F 23.4 °F 68% 30.02 in 10.0 mi WSW 5.8 mph - N/A   Clear
3:35 AM 33.4 °F 28.1 °F 23.4 °F 67% 30.01 in 10.0 mi WSW 5.8 mph - N/A   Clear
3:55 AM 32.5 °F 24.8 °F 22.8 °F 67% 30.01 in 10.0 mi SW 9.2 mph - N/A   Clear
4:15 AM 31.6 °F 22.6 °F 22.6 °F 69% 29.99 in 10.0 mi SW 11.5 mph - N/A   Clear
4:35 AM 31.8 °F 23.9 °F 22.5 °F 68% 29.97 in 10.0 mi SW 9.2 mph - N/A   Clear
4:55 AM 31.8 °F 24.6 °F 22.1 °F 67% 29.98 in 10.0 mi WSW 8.1 mph - N/A   Clear
5:15 AM 31.1 °F 23.7 °F 21.9 °F 69% 29.97 in 10.0 mi WSW 8.1 mph - N/A   Clear
5:35 AM 32.0 °F 24.2 °F 21.4 °F 65% 29.96 in 10.0 mi WSW 9.2 mph - N/A   Clear
5:55 AM 31.8 °F 24.6 °F 21.0 °F 64% 29.96 in 10.0 mi West 8.1 mph - N/A   Clear
6:15 AM 32.0 °F 24.2 °F 21.0 °F 64% 29.95 in 10.0 mi WSW 9.2 mph - N/A   Clear
6:35 AM 32.0 °F 24.2 °F 20.3 °F 62% 29.95 in 10.0 mi WSW 9.2 mph - N/A   Clear
6:55 AM 32.4 °F 22.5 °F 19.9 °F 60% 29.94 in 10.0 mi WSW 13.8 mph - N/A   Clear
7:15 AM 32.7 °F 24.5 °F 19.4 °F 58% 29.94 in 10.0 mi West 10.4 mph - N/A   Clear
7:35 AM 33.1 °F 25.5 °F 19.4 °F 57% 29.94 in 10.0 mi West 9.2 mph - N/A   Clear
7:55 AM 32.5 °F 24.2 °F 19.2 °F 58% 29.94 in 10.0 mi West 10.4 mph - N/A   Clear
8:15 AM 32.9 °F 25.3 °F 19.2 °F 57% 29.95 in 10.0 mi West 9.2 mph - N/A   Clear
8:35 AM 32.5 °F 25.5 °F 18.9 °F 57% 29.95 in 10.0 mi West 8.1 mph - N/A   Clear
8:55 AM 34.0 °F 25.0 °F 19.4 °F 55% 29.96 in 10.0 mi West 12.7 mph - N/A   Clear
9:15 AM 37.6 °F 29.6 °F 19.0 °F 47% 29.96 in 10.0 mi West 12.7 mph 18.4 mph N/A   Clear
9:35 AM 39.2 °F 32.0 °F 19.2 °F 45% 29.97 in 10.0 mi West 11.5 mph - N/A   Clear
9:55 AM 41.0 °F 34.3 °F 19.4 °F 42% 29.97 in 10.0 mi West 11.5 mph - N/A   Clear
10:15 AM 42.8 °F 36.2 °F 18.7 °F 38% 29.98 in 10.0 mi West 12.7 mph - N/A   Clear
10:35 AM 44.8 °F 38.0 °F 18.1 °F 34% 29.98 in 10.0 mi West 15.0 mph - N/A   Clear
10:55 AM 46.0 °F 39.9 °F 17.4 °F 32% 29.98 in 10.0 mi West 13.8 mph 18.4 mph N/A   Clear
11:15 AM 48.4 °F - 18.0 °F 30% 29.97 in 10.0 mi West 12.7 mph - N/A   Clear
11:35 AM 49.6 °F - 17.6 °F 28% 29.97 in 10.0 mi West 11.5 mph - N/A   Clear
11:55 AM 50.4 °F - 17.6 °F 27% 29.96 in 10.0 mi West 11.5 mph - N/A   Clear
12:15 PM 52.0 °F - 17.1 °F 25% 29.94 in 10.0 mi WNW 12.7 mph 17.3 mph N/A   Clear
12:35 PM 53.6 °F - 16.3 °F 23% 29.93 in 10.0 mi WNW 12.7 mph - N/A   Clear
12:55 PM 54.1 °F - 16.5 °F 23% 29.92 in 10.0 mi WNW 12.7 mph - N/A   Clear
1:15 PM 54.5 °F - 17.4 °F 23% 29.91 in 10.0 mi West 12.7 mph - N/A   Clear
1:35 PM 54.9 °F - 17.6 °F 23% 29.91 in 10.0 mi West 12.7 mph - N/A   Clear
1:55 PM 55.4 °F - 17.2 °F 22% 29.91 in 10.0 mi West 15.0 mph - N/A   Clear
2:15 PM 55.4 °F - 17.4 °F 23% 29.90 in 10.0 mi West 13.8 mph - N/A   Clear
2:35 PM 55.0 °F - 18.5 °F 24% 29.90 in 10.0 mi West 12.7 mph - N/A   Clear
2:55 PM 54.7 °F - 18.7 °F 24% 29.90 in 10.0 mi West 15.0 mph - N/A   Clear
3:15 PM 54.7 °F - 18.1 °F 24% 29.90 in 10.0 mi West 15.0 mph - N/A   Clear
3:35 PM 54.1 °F - 18.1 °F 24% 29.90 in 10.0 mi West 16.1 mph - N/A   Clear
3:55 PM 53.8 °F - 18.1 °F 25% 29.90 in 10.0 mi West 12.7 mph - N/A   Clear
4:15 PM 53.1 °F - 19.4 °F 27% 29.90 in 10.0 mi West 11.5 mph - N/A   Clear
4:35 PM 51.8 °F - 19.4 °F 28% 29.90 in 10.0 mi West 12.7 mph - N/A   Clear
4:55 PM 50.2 °F - 20.1 °F 31% 29.90 in 10.0 mi West 6.9 mph - N/A   Clear
5:15 PM 47.1 °F - 20.1 °F 34% 29.90 in 10.0 mi WSW 5.8 mph - N/A   Clear
5:35 PM 44.2 °F 39.7 °F 20.7 °F 39% 29.90 in 10.0 mi WSW 8.1 mph - N/A   Clear
5:55 PM 40.3 °F 34.4 °F 21.0 °F 46% 29.90 in 10.0 mi WSW 9.2 mph - N/A   Clear
6:15 PM 38.7 °F 32.4 °F 21.6 °F 50% 29.90 in 10.0 mi SW 9.2 mph - N/A   Clear
6:35 PM 37.2 °F 31.9 °F 21.7 °F 54% 29.90 in 10.0 mi SW 6.9 mph - N/A   Clear
6:55 PM 35.8 °F 30.9 °F 21.6 °F 56% 29.90 in 10.0 mi WSW 5.8 mph - N/A   Clear
7:15 PM 36.7 °F 29.9 °F 23.0 °F 58% 29.90 in 10.0 mi WSW 9.2 mph - N/A   Clear
7:35 PM 36.3 °F 30.1 °F 23.0 °F 59% 29.89 in 10.0 mi SW 8.1 mph - N/A   Clear
7:55 PM 35.8 °F 29.4 °F 23.5 °F 61% 29.89 in 10.0 mi SW 8.1 mph - N/A   Clear
8:15 PM 37.0 °F 30.4 °F 24.4 °F 60% 29.88 in 10.0 mi SW 9.2 mph - N/A   Clear
8:35 PM 37.6 °F 31.0 °F 23.7 °F 57% 29.88 in 10.0 mi SW 9.2 mph - N/A   Clear
8:55 PM 36.9 °F 30.7 °F 23.9 °F 59% 29.87 in 10.0 mi WSW 8.1 mph - N/A   Clear
9:15 PM 36.5 °F 30.3 °F 24.1 °F 61% 29.87 in 10.0 mi WSW 8.1 mph - N/A   Clear
9:35 PM 37.8 °F 30.7 °F 24.3 °F 58% 29.87 in 10.0 mi WSW 10.4 mph - N/A   Clear
9:55 PM 36.7 °F 29.9 °F 24.4 °F 61% 29.87 in 10.0 mi WSW 9.2 mph - N/A   Clear
10:15 PM 36.7 °F 29.4 °F 24.6 °F 62% 29.87 in 10.0 mi West 10.4 mph - N/A   Clear
10:35 PM 37.0 °F 29.8 °F 24.4 °F 60% 29.87 in 10.0 mi West 10.4 mph - N/A   Clear
10:55 PM 36.1 °F 30.6 °F 24.1 °F 62% 29.87 in 10.0 mi West 6.9 mph - N/A   Clear
11:15 PM 35.4 °F 30.5 °F 24.4 °F 64% 29.87 in 10.0 mi West 5.8 mph - N/A   Clear
11:35 PM 36.0 °F 29.6 °F 24.8 °F 64% 29.86 in 10.0 mi West 8.1 mph - N/A   Clear
11:55 PM 37.4 °F 32.1 °F 24.8 °F 60% 29.86 in 10.0 mi West 6.9 mph - N/A   Clear